owner,sensor,date,latitude,longitude,vertical_datum,sea_water_practical_salinity,qcFlag 
NERRS,ioos:station:NOAA.NERRS:gndblwq:1,2015-05-01T00:00:00Z,30.3571,-88.4629,0.33,10.9,1111122 
NERRS,ioos:station:NOAA.NERRS:gndblwq:1,2015-05-01T01:00:00Z,30.3571,-88.4629,0.3,10.6,1111122 
NERRS,ioos:station:NOAA.NERRS:gndblwq:1,2015-05-01T02:00:00Z,30.3571,-88.4629,0.32,10.7,1111122 
NERRS,ioos:station:NOAA.NERRS:gndblwq:1,2015-05-01T03:00:00Z,30.3571,-88.4629,0.33,10.9,1111122 
NERRS,ioos:station:NOAA.NERRS:gndblwq:1,2015-05-01T04:00:00Z,30.3571,-88.4629,0.34,10.8,1111122 
NERRS,ioos:station:NOAA.NERRS:gndblwq:1,2015-05-01T05:00:00Z,30.3571,-88.4629,0.37,10.9,1111122 
NERRS,ioos:station:NOAA.NERRS:gndblwq:1,2015-05-01T06:00:00Z,30.3571,-88.4629,0.36,10.9,1111122 
NERRS,ioos:station:NOAA.NERRS:gndblwq:1,2015-05-01T07:00:00Z,30.3571,-88.4629,0.33,10.7,1111122 
NERRS,ioos:station:NOAA.NERRS:gndblwq:1,2015-05-01T08:00:00Z,30.3571,-88.4629,0.32,10.6,1111122 
NERRS,ioos:station:NOAA.NERRS:gndblwq:1,2015-05-01T09:00:00Z,30.3571,-88.4629,0.34,10.2,1111122 
NERRS,ioos:station:NOAA.NERRS:gndblwq:1,2015-05-01T10:00:00Z,30.3571,-88.4629,0.38,13.7,1111122 
NERRS,ioos:station:NOAA.NERRS:gndblwq:1,2015-05-01T11:00:00Z,30.3571,-88.4629,0.43,17.0,1111122 
NERRS,ioos:station:NOAA.NERRS:gndblwq:1,2015-05-01T12:00:00Z,30.3571,-88.4629,0.47,17.7,1111122 
NERRS,ioos:station:NOAA.NERRS:gndblwq:1,2015-05-01T13:00:00Z,30.3571,-88.4629,0.48,16.7,1111122 
NERRS,ioos:station:NOAA.NERRS:gndblwq:1,2015-05-01T14:00:00Z,30.3571,-88.4629,0.49,16.8,1111122 
NERRS,ioos:station:NOAA.NERRS:gndblwq:1,2015-05-01T15:00:00Z,30.3571,-88.4629,0.48,12.7,1111122 
NERRS,ioos:station:NOAA.NERRS:gndblwq:1,2015-05-01T16:00:00Z,30.3571,-88.4629,0.48,13.2,1111122 
NERRS,ioos:station:NOAA.NERRS:gndblwq:1,2015-05-01T17:00:00Z,30.3571,-88.4629,0.47,13.3,1111122 
NERRS,ioos:station:NOAA.NERRS:gndblwq:1,2015-05-01T18:00:00Z,30.3571,-88.4629,0.46,12.0,1111122 
NERRS,ioos:station:NOAA.NERRS:gndblwq:1,2015-05-01T19:00:00Z,30.3571,-88.4629,0.41,11.5,1111122 
NERRS,ioos:station:NOAA.NERRS:gndblwq:1,2015-05-01T20:00:00Z,30.3571,-88.4629,0.35,11.3,1111122 
NERRS,ioos:station:NOAA.NERRS:gndblwq:1,2015-05-01T21:00:00Z,30.3571,-88.4629,0.29,11.4,1111122 
NERRS,ioos:station:NOAA.NERRS:gndblwq:1,2015-05-01T22:00:00Z,30.3571,-88.4629,0.28,11.2,1111122 
NERRS,ioos:station:NOAA.NERRS:gndblwq:1,2015-05-01T23:00:00Z,30.3571,-88.4629,0.29,11.3,1111122 
NERRS,ioos:station:NOAA.NERRS:gndblwq:1,2015-05-02T00:00:00Z,30.3571,-88.4629,0.32,11.3,1111122 
NERRS,ioos:station:NOAA.NERRS:gndblwq:1,2015-05-02T01:00:00Z,30.3571,-88.4629,0.35,11.4,1111122 
NERRS,ioos:station:NOAA.NERRS:gndblwq:1,2015-05-02T02:00:00Z,30.3571,-88.4629,0.36,12.2,1111122 
NERRS,ioos:station:NOAA.NERRS:gndblwq:1,2015-05-02T03:00:00Z,30.3571,-88.4629,0.32,11.5,1111122 
NERRS,ioos:station:NOAA.NERRS:gndblwq:1,2015-05-02T04:00:00Z,30.3571,-88.4629,0.35,11.8,1111122 
NERRS,ioos:station:NOAA.NERRS:gndblwq:1,2015-05-02T05:00:00Z,30.3571,-88.4629,0.39,12.4,1111122 
NERRS,ioos:station:NOAA.NERRS:gndblwq:1,2015-05-02T06:00:00Z,30.3571,-88.4629,0.39,11.9,1111122 
NERRS,ioos:station:NOAA.NERRS:gndblwq:1,2015-05-02T07:00:00Z,30.3571,-88.4629,0.39,12.1,1111122 
NERRS,ioos:station:NOAA.NERRS:gndblwq:1,2015-05-02T08:00:00Z,30.3571,-88.4629,0.43,16.6,1111122 
NERRS,ioos:station:NOAA.NERRS:gndblwq:1,2015-05-02T09:00:00Z,30.3571,-88.4629,0.48,13.4,1111122 
NERRS,ioos:station:NOAA.NERRS:gndblwq:1,2015-05-02T10:00:00Z,30.3571,-88.4629,0.54,16.2,1111122 
NERRS,ioos:station:NOAA.NERRS:gndblwq:1,2015-05-02T11:00:00Z,30.3571,-88.4629,0.6,16.3,1111122 
NERRS,ioos:station:NOAA.NERRS:gndblwq:1,2015-05-02T12:00:00Z,30.3571,-88.4629,0.63,16.8,1111122 
NERRS,ioos:station:NOAA.NERRS:gndblwq:1,2015-05-02T13:00:00Z,30.3571,-88.4629,0.64,16.4,1111122 
NERRS,ioos:station:NOAA.NERRS:gndblwq:1,2015-05-02T14:00:00Z,30.3571,-88.4629,0.64,16.8,1111122 
NERRS,ioos:station:NOAA.NERRS:gndblwq:1,2015-05-02T15:00:00Z,30.3571,-88.4629,0.64,16.8,1111122 
NERRS,ioos:station:NOAA.NERRS:gndblwq:1,2015-05-02T16:00:00Z,30.3571,-88.4629,0.61,15.5,1111122 
NERRS,ioos:station:NOAA.NERRS:gndblwq:1,2015-05-02T17:00:00Z,30.3571,-88.4629,0.56,12.7,1111122 
NERRS,ioos:station:NOAA.NERRS:gndblwq:1,2015-05-02T18:00:00Z,30.3571,-88.4629,0.5,13.4,1111122 
NERRS,ioos:station:NOAA.NERRS:gndblwq:1,2015-05-02T19:00:00Z,30.3571,-88.4629,0.43,12.9,1111122 
NERRS,ioos:station:NOAA.NERRS:gndblwq:1,2015-05-02T20:00:00Z,30.3571,-88.4629,0.35,13.4,1111122 
NERRS,ioos:station:NOAA.NERRS:gndblwq:1,2015-05-02T21:00:00Z,30.3571,-88.4629,0.31,13.1,1111122 
NERRS,ioos:station:NOAA.NERRS:gndblwq:1,2015-05-02T22:00:00Z,30.3571,-88.4629,0.29,13.3,1111122 
NERRS,ioos:station:NOAA.NERRS:gndblwq:1,2015-05-02T23:00:00Z,30.3571,-88.4629,0.3,13.0,1111122 
NERRS,ioos:station:NOAA.NERRS:gndblwq:1,2015-05-03T00:00:00Z,30.3571,-88.4629,0.34,12.9,1111122 
NERRS,ioos:station:NOAA.NERRS:gndblwq:1,2015-05-03T01:00:00Z,30.3571,-88.4629,0.36,13.2,1111122 
NERRS,ioos:station:NOAA.NERRS:gndblwq:1,2015-05-03T02:00:00Z,30.3571,-88.4629,0.38,13.1,1111122 
NERRS,ioos:station:NOAA.NERRS:gndblwq:1,2015-05-03T03:00:00Z,30.3571,-88.4629,0.41,13.0,1111122 
NERRS,ioos:station:NOAA.NERRS:gndblwq:1,2015-05-03T04:00:00Z,30.3571,-88.4629,0.43,13.0,1111122 
NERRS,ioos:station:NOAA.NERRS:gndblwq:1,2015-05-03T06:00:00Z,30.3571,-88.4629,0.5,13.9,1111122 
NERRS,ioos:station:NOAA.NERRS:gndblwq:1,2015-05-03T07:00:00Z,30.3571,-88.4629,0.5,14.0,1111122 
NERRS,ioos:station:NOAA.NERRS:gndblwq:1,2015-05-03T08:00:00Z,30.3571,-88.4629,0.51,13.6,1111122 
NERRS,ioos:station:NOAA.NERRS:gndblwq:1,2015-05-03T09:00:00Z,30.3571,-88.4629,0.54,14.6,1111122 
NERRS,ioos:station:NOAA.NERRS:gndblwq:1,2015-05-03T10:00:00Z,30.3571,-88.4629,0.58,15.4,1111122 
NERRS,ioos:station:NOAA.NERRS:gndblwq:1,2015-05-03T11:00:00Z,30.3571,-88.4629,0.64,16.0,1111122 
NERRS,ioos:station:NOAA.NERRS:gndblwq:1,2015-05-03T12:00:00Z,30.3571,-88.4629,0.67,16.3,1111122 
NERRS,ioos:station:NOAA.NERRS:gndblwq:1,2015-05-03T13:00:00Z,30.3571,-88.4629,0.71,16.6,1111122 
NERRS,ioos:station:NOAA.NERRS:gndblwq:1,2015-05-03T14:00:00Z,30.3571,-88.4629,0.73,16.4,1111122 
NERRS,ioos:station:NOAA.NERRS:gndblwq:1,2015-05-03T15:00:00Z,30.3571,-88.4629,0.73,16.4,1111122 
NERRS,ioos:station:NOAA.NERRS:gndblwq:1,2015-05-03T16:00:00Z,30.3571,-88.4629,0.71,16.4,1111122 
NERRS,ioos:station:NOAA.NERRS:gndblwq:1,2015-05-03T17:00:00Z,30.3571,-88.4629,0.67,16.3,1111122 
NERRS,ioos:station:NOAA.NERRS:gndblwq:1,2015-05-03T18:00:00Z,30.3571,-88.4629,0.62,15.9,1111122 
NERRS,ioos:station:NOAA.NERRS:gndblwq:1,2015-05-03T19:00:00Z,30.3571,-88.4629,0.56,15.5,1111122 
NERRS,ioos:station:NOAA.NERRS:gndblwq:1,2015-05-03T20:00:00Z,30.3571,-88.4629,0.46,15.3,1111122 
NERRS,ioos:station:NOAA.NERRS:gndblwq:1,2015-05-03T21:00:00Z,30.3571,-88.4629,0.38,15.3,1111122 
NERRS,ioos:station:NOAA.NERRS:gndblwq:1,2015-05-03T22:00:00Z,30.3571,-88.4629,0.33,15.4,1111122 
NERRS,ioos:station:NOAA.NERRS:gndblwq:1,2015-05-03T23:00:00Z,30.3571,-88.4629,0.3,14.8,1111122 
NERRS,ioos:station:NOAA.NERRS:gndblwq:1,2015-05-04T00:00:00Z,30.3571,-88.4629,0.33,14.5,1111122 
NERRS,ioos:station:NOAA.NERRS:gndblwq:1,2015-05-04T01:00:00Z,30.3571,-88.4629,0.39,14.2,1111122 
NERRS,ioos:station:NOAA.NERRS:gndblwq:1,2015-05-04T02:00:00Z,30.3571,-88.4629,0.42,14.2,1111122 
NERRS,ioos:station:NOAA.NERRS:gndblwq:1,2015-05-04T03:00:00Z,30.3571,-88.4629,0.46,14.5,1111122 
NERRS,ioos:station:NOAA.NERRS:gndblwq:1,2015-05-04T04:00:00Z,30.3571,-88.4629,0.54,14.4,1111122 
NERRS,ioos:station:NOAA.NERRS:gndblwq:1,2015-05-04T05:00:00Z,30.3571,-88.4629,0.63,14.9,1111122 
NERRS,ioos:station:NOAA.NERRS:gndblwq:1,2015-05-04T06:00:00Z,30.3571,-88.4629,0.64,15.4,1111122 
NERRS,ioos:station:NOAA.NERRS:gndblwq:1,2015-05-04T07:00:00Z,30.3571,-88.4629,0.63,15.5,1111122 
NERRS,ioos:station:NOAA.NERRS:gndblwq:1,2015-05-04T08:00:00Z,30.3571,-88.4629,0.65,15.4,1111122 
NERRS,ioos:station:NOAA.NERRS:gndblwq:1,2015-05-04T09:00:00Z,30.3571,-88.4629,0.66,15.6,1111122 
NERRS,ioos:station:NOAA.NERRS:gndblwq:1,2015-05-04T10:00:00Z,30.3571,-88.4629,0.69,15.6,1111122 
NERRS,ioos:station:NOAA.NERRS:gndblwq:1,2015-05-04T11:00:00Z,30.3571,-88.4629,0.73,15.7,1111122 
NERRS,ioos:station:NOAA.NERRS:gndblwq:1,2015-05-04T12:00:00Z,30.3571,-88.4629,0.79,15.6,1111122 
NERRS,ioos:station:NOAA.NERRS:gndblwq:1,2015-05-04T13:00:00Z,30.3571,-88.4629,0.85,15.5,1111122 
NERRS,ioos:station:NOAA.NERRS:gndblwq:1,2015-05-04T14:00:00Z,30.3571,-88.4629,0.88,15.6,1111122 
NERRS,ioos:station:NOAA.NERRS:gndblwq:1,2015-05-04T15:00:00Z,30.3571,-88.4629,0.9,15.6,1111122 
NERRS,ioos:station:NOAA.NERRS:gndblwq:1,2015-05-04T16:00:00Z,30.3571,-88.4629,0.91,15.4,1111122 
NERRS,ioos:station:NOAA.NERRS:gndblwq:1,2015-05-04T17:00:00Z,30.3571,-88.4629,0.88,15.3,1111122 
NERRS,ioos:station:NOAA.NERRS:gndblwq:1,2015-05-04T18:00:00Z,30.3571,-88.4629,0.85,15.1,1111122 
NERRS,ioos:station:NOAA.NERRS:gndblwq:1,2015-05-04T19:00:00Z,30.3571,-88.4629,0.81,15.3,1111122 
NERRS,ioos:station:NOAA.NERRS:gndblwq:1,2015-05-04T20:00:00Z,30.3571,-88.4629,0.74,15.2,1111122 
NERRS,ioos:station:NOAA.NERRS:gndblwq:1,2015-05-04T21:00:00Z,30.3571,-88.4629,0.65,15.6,1111122 
NERRS,ioos:station:NOAA.NERRS:gndblwq:1,2015-05-04T22:00:00Z,30.3571,-88.4629,0.55,15.6,1111122 
NERRS,ioos:station:NOAA.NERRS:gndblwq:1,2015-05-04T23:00:00Z,30.3571,-88.4629,0.46,15.5,1111122 
NERRS,ioos:station:NOAA.NERRS:gndblwq:1,2015-05-05T00:00:00Z,30.3571,-88.4629,0.45,14.8,1111122 
NERRS,ioos:station:NOAA.NERRS:gndblwq:1,2015-05-05T01:00:00Z,30.3571,-88.4629,0.48,15.0,1111122 
NERRS,ioos:station:NOAA.NERRS:gndblwq:1,2015-05-05T02:00:00Z,30.3571,-88.4629,0.54,15.2,1111122 
NERRS,ioos:station:NOAA.NERRS:gndblwq:1,2015-05-05T03:00:00Z,30.3571,-88.4629,0.54,15.1,1111122 
NERRS,ioos:station:NOAA.NERRS:gndblwq:1,2015-05-05T04:00:00Z,30.3571,-88.4629,0.55,15.2,1111122 
NERRS,ioos:station:NOAA.NERRS:gndblwq:1,2015-05-05T05:00:00Z,30.3571,-88.4629,0.55,15.2,1111122 
NERRS,ioos:station:NOAA.NERRS:gndblwq:1,2015-05-05T06:00:00Z,30.3571,-88.4629,0.56,15.2,1111122 
NERRS,ioos:station:NOAA.NERRS:gndblwq:1,2015-05-05T07:00:00Z,30.3571,-88.4629,0.6,15.1,1111122 
NERRS,ioos:station:NOAA.NERRS:gndblwq:1,2015-05-05T08:00:00Z,30.3571,-88.4629,0.65,15.1,1111122 
NERRS,ioos:station:NOAA.NERRS:gndblwq:1,2015-05-05T09:00:00Z,30.3571,-88.4629,0.66,15.2,1111122 
NERRS,ioos:station:NOAA.NERRS:gndblwq:1,2015-05-05T10:00:00Z,30.3571,-88.4629,0.68,15.2,1111122 
NERRS,ioos:station:NOAA.NERRS:gndblwq:1,2015-05-05T11:00:00Z,30.3571,-88.4629,0.71,15.2,1111122 
NERRS,ioos:station:NOAA.NERRS:gndblwq:1,2015-05-05T12:00:00Z,30.3571,-88.4629,0.76,14.8,1111122 
NERRS,ioos:station:NOAA.NERRS:gndblwq:1,2015-05-05T13:00:00Z,30.3571,-88.4629,0.83,14.7,1111122 
NERRS,ioos:station:NOAA.NERRS:gndblwq:1,2015-05-05T14:00:00Z,30.3571,-88.4629,0.9,13.3,1111122 
NERRS,ioos:station:NOAA.NERRS:gndblwq:1,2015-05-05T15:00:00Z,30.3571,-88.4629,0.95,12.5,1111122 
NERRS,ioos:station:NOAA.NERRS:gndblwq:1,2015-05-05T16:00:00Z,30.3571,-88.4629,0.97,12.1,1111122 
NERRS,ioos:station:NOAA.NERRS:gndblwq:1,2015-05-05T17:00:00Z,30.3571,-88.4629,0.98,12.8,1111122 
NERRS,ioos:station:NOAA.NERRS:gndblwq:1,2015-05-05T18:00:00Z,30.3571,-88.4629,0.96,12.3,1111122 
NERRS,ioos:station:NOAA.NERRS:gndblwq:1,2015-05-05T19:00:00Z,30.3571,-88.4629,0.92,12.0,1111122 
NERRS,ioos:station:NOAA.NERRS:gndblwq:1,2015-05-05T20:00:00Z,30.3571,-88.4629,0.84,13.8,1111122 
NERRS,ioos:station:NOAA.NERRS:gndblwq:1,2015-05-05T21:00:00Z,30.3571,-88.4629,0.75,14.2,1111122 
NERRS,ioos:station:NOAA.NERRS:gndblwq:1,2015-05-05T22:00:00Z,30.3571,-88.4629,0.66,14.7,1111122 
NERRS,ioos:station:NOAA.NERRS:gndblwq:1,2015-05-05T23:00:00Z,30.3571,-88.4629,0.56,15.1,1111122 
NERRS,ioos:station:NOAA.NERRS:gndblwq:1,2015-05-06T00:00:00Z,30.3571,-88.4629,0.48,15.1,1111122 
NERRS,ioos:station:NOAA.NERRS:gndblwq:1,2015-05-06T01:00:00Z,30.3571,-88.4629,0.46,14.7,1111122 
NERRS,ioos:station:NOAA.NERRS:gndblwq:1,2015-05-06T02:00:00Z,30.3571,-88.4629,0.5,14.7,1111122 
NERRS,ioos:station:NOAA.NERRS:gndblwq:1,2015-05-06T03:00:00Z,30.3571,-88.4629,0.53,14.7,1111122 
NERRS,ioos:station:NOAA.NERRS:gndblwq:1,2015-05-06T04:00:00Z,30.3571,-88.4629,0.51,14.8,1111122 
NERRS,ioos:station:NOAA.NERRS:gndblwq:1,2015-05-06T05:00:00Z,30.3571,-88.4629,0.53,14.7,1111122 
NERRS,ioos:station:NOAA.NERRS:gndblwq:1,2015-05-06T06:00:00Z,30.3571,-88.4629,0.56,14.7,1111122 
NERRS,ioos:station:NOAA.NERRS:gndblwq:1,2015-05-06T07:00:00Z,30.3571,-88.4629,0.59,14.6,1111122 
NERRS,ioos:station:NOAA.NERRS:gndblwq:1,2015-05-06T08:00:00Z,30.3571,-88.4629,0.62,14.5,1111122 
NERRS,ioos:station:NOAA.NERRS:gndblwq:1,2015-05-06T09:00:00Z,30.3571,-88.4629,0.64,14.0,1111122 
NERRS,ioos:station:NOAA.NERRS:gndblwq:1,2015-05-06T10:00:00Z,30.3571,-88.4629,0.67,14.0,1111122 
NERRS,ioos:station:NOAA.NERRS:gndblwq:1,2015-05-06T11:00:00Z,30.3571,-88.4629,0.71,13.5,1111122 
NERRS,ioos:station:NOAA.NERRS:gndblwq:1,2015-05-06T12:00:00Z,30.3571,-88.4629,0.77,13.0,1111122 
NERRS,ioos:station:NOAA.NERRS:gndblwq:1,2015-05-06T13:00:00Z,30.3571,-88.4629,0.84,12.7,1111122 
NERRS,ioos:station:NOAA.NERRS:gndblwq:1,2015-05-06T14:00:00Z,30.3571,-88.4629,0.9,11.7,1111122 
NERRS,ioos:station:NOAA.NERRS:gndblwq:1,2015-05-06T15:00:00Z,30.3571,-88.4629,0.95,11.3,1111122 
NERRS,ioos:station:NOAA.NERRS:gndblwq:1,2015-05-06T16:00:00Z,30.3571,-88.4629,0.98,11.0,1111122 
NERRS,ioos:station:NOAA.NERRS:gndblwq:1,2015-05-06T17:00:00Z,30.3571,-88.4629,0.97,11.6,1111122 
NERRS,ioos:station:NOAA.NERRS:gndblwq:1,2015-05-06T18:00:00Z,30.3571,-88.4629,0.92,11.0,1111122 
NERRS,ioos:station:NOAA.NERRS:gndblwq:1,2015-05-06T19:00:00Z,30.3571,-88.4629,0.87,11.8,1111122 
NERRS,ioos:station:NOAA.NERRS:gndblwq:1,2015-05-06T20:00:00Z,30.3571,-88.4629,0.82,12.2,1111122 
NERRS,ioos:station:NOAA.NERRS:gndblwq:1,2015-05-06T21:00:00Z,30.3571,-88.4629,0.75,13.8,1111122 
NERRS,ioos:station:NOAA.NERRS:gndblwq:1,2015-05-06T22:00:00Z,30.3571,-88.4629,0.67,13.8,1111122 
NERRS,ioos:station:NOAA.NERRS:gndblwq:1,2015-05-06T23:00:00Z,30.3571,-88.4629,0.57,14.3,1111122 
NERRS,ioos:station:NOAA.NERRS:gndblwq:1,2015-05-07T00:00:00Z,30.3571,-88.4629,0.47,14.8,1111122 
NERRS,ioos:station:NOAA.NERRS:gndblwq:1,2015-05-07T01:00:00Z,30.3571,-88.4629,0.42,14.8,1111122 
NERRS,ioos:station:NOAA.NERRS:gndblwq:1,2015-05-07T02:00:00Z,30.3571,-88.4629,0.41,13.8,1111122 
NERRS,ioos:station:NOAA.NERRS:gndblwq:1,2015-05-07T03:00:00Z,30.3571,-88.4629,0.42,14.0,1111122 
NERRS,ioos:station:NOAA.NERRS:gndblwq:1,2015-05-07T04:00:00Z,30.3571,-88.4629,0.41,14.2,1111122 
NERRS,ioos:station:NOAA.NERRS:gndblwq:1,2015-05-07T05:00:00Z,30.3571,-88.4629,0.45,14.0,1111122 
NERRS,ioos:station:NOAA.NERRS:gndblwq:1,2015-05-07T06:00:00Z,30.3571,-88.4629,0.5,14.0,1111122 
NERRS,ioos:station:NOAA.NERRS:gndblwq:1,2015-05-07T07:00:00Z,30.3571,-88.4629,0.52,14.0,1111122 
NERRS,ioos:station:NOAA.NERRS:gndblwq:1,2015-05-07T08:00:00Z,30.3571,-88.4629,0.56,13.3,1111122 
NERRS,ioos:station:NOAA.NERRS:gndblwq:1,2015-05-07T09:00:00Z,30.3571,-88.4629,0.59,13.1,1111122 
NERRS,ioos:station:NOAA.NERRS:gndblwq:1,2015-05-07T10:00:00Z,30.3571,-88.4629,0.63,13.0,1111122 
NERRS,ioos:station:NOAA.NERRS:gndblwq:1,2015-05-07T11:00:00Z,30.3571,-88.4629,0.68,12.5,1111122 
NERRS,ioos:station:NOAA.NERRS:gndblwq:1,2015-05-07T12:00:00Z,30.3571,-88.4629,0.72,12.2,1111122 
NERRS,ioos:station:NOAA.NERRS:gndblwq:1,2015-05-07T13:00:00Z,30.3571,-88.4629,0.78,12.0,1111122 
NERRS,ioos:station:NOAA.NERRS:gndblwq:1,2015-05-07T14:00:00Z,30.3571,-88.4629,0.84,11.6,1111122 
NERRS,ioos:station:NOAA.NERRS:gndblwq:1,2015-05-07T15:00:00Z,30.3571,-88.4629,0.91,10.9,1111122 
NERRS,ioos:station:NOAA.NERRS:gndblwq:1,2015-05-07T16:00:00Z,30.3571,-88.4629,0.94,11.1,1111122 
NERRS,ioos:station:NOAA.NERRS:gndblwq:1,2015-05-07T17:00:00Z,30.3571,-88.4629,0.92,11.4,1111122 
NERRS,ioos:station:NOAA.NERRS:gndblwq:1,2015-05-07T18:00:00Z,30.3571,-88.4629,0.87,12.8,1111122 
NERRS,ioos:station:NOAA.NERRS:gndblwq:1,2015-05-07T19:00:00Z,30.3571,-88.4629,0.81,12.6,1111122 
NERRS,ioos:station:NOAA.NERRS:gndblwq:1,2015-05-07T20:00:00Z,30.3571,-88.4629,0.75,12.1,1111122 
NERRS,ioos:station:NOAA.NERRS:gndblwq:1,2015-05-07T21:00:00Z,30.3571,-88.4629,0.7,12.1,1111122 
NERRS,ioos:station:NOAA.NERRS:gndblwq:1,2015-05-07T22:00:00Z,30.3571,-88.4629,0.62,12.8,1111122 
NERRS,ioos:station:NOAA.NERRS:gndblwq:1,2015-05-07T23:00:00Z,30.3571,-88.4629,0.51,12.6,1111122 
NERRS,ioos:station:NOAA.NERRS:gndblwq:1,2015-05-08T00:00:00Z,30.3571,-88.4629,0.4,13.1,1111122 
NERRS,ioos:station:NOAA.NERRS:gndblwq:1,2015-05-08T01:00:00Z,30.3571,-88.4629,0.33,13.6,1111122 
NERRS,ioos:station:NOAA.NERRS:gndblwq:1,2015-05-08T02:00:00Z,30.3571,-88.4629,0.3,13.6,1111122 
NERRS,ioos:station:NOAA.NERRS:gndblwq:1,2015-05-08T03:00:00Z,30.3571,-88.4629,0.3,13.4,1111122 
NERRS,ioos:station:NOAA.NERRS:gndblwq:1,2015-05-08T04:00:00Z,30.3571,-88.4629,0.34,13.4,1111122 
NERRS,ioos:station:NOAA.NERRS:gndblwq:1,2015-05-08T05:00:00Z,30.3571,-88.4629,0.35,13.4,1111122 
NERRS,ioos:station:NOAA.NERRS:gndblwq:1,2015-05-08T06:00:00Z,30.3571,-88.4629,0.38,13.3,1111122 
NERRS,ioos:station:NOAA.NERRS:gndblwq:1,2015-05-08T07:00:00Z,30.3571,-88.4629,0.4,13.3,1111122 
NERRS,ioos:station:NOAA.NERRS:gndblwq:1,2015-05-08T08:00:00Z,30.3571,-88.4629,0.44,13.1,1111122 
NERRS,ioos:station:NOAA.NERRS:gndblwq:1,2015-05-08T09:00:00Z,30.3571,-88.4629,0.5,12.9,1111122 
NERRS,ioos:station:NOAA.NERRS:gndblwq:1,2015-05-08T10:00:00Z,30.3571,-88.4629,0.56,12.6,1111122 
NERRS,ioos:station:NOAA.NERRS:gndblwq:1,2015-05-08T11:00:00Z,30.3571,-88.4629,0.61,12.4,1111122 
NERRS,ioos:station:NOAA.NERRS:gndblwq:1,2015-05-08T12:00:00Z,30.3571,-88.4629,0.65,12.0,1111122 
NERRS,ioos:station:NOAA.NERRS:gndblwq:1,2015-05-08T13:00:00Z,30.3571,-88.4629,0.7,11.8,1111122 
NERRS,ioos:station:NOAA.NERRS:gndblwq:1,2015-05-08T14:00:00Z,30.3571,-88.4629,0.76,11.8,1111122 
NERRS,ioos:station:NOAA.NERRS:gndblwq:1,2015-05-08T15:00:00Z,30.3571,-88.4629,0.83,11.3,1111122 
NERRS,ioos:station:NOAA.NERRS:gndblwq:1,2015-05-08T16:00:00Z,30.3571,-88.4629,0.87,11.1,1111122 
NERRS,ioos:station:NOAA.NERRS:gndblwq:1,2015-05-08T17:00:00Z,30.3571,-88.4629,0.89,11.1,1111122 
NERRS,ioos:station:NOAA.NERRS:gndblwq:1,2015-05-08T18:00:00Z,30.3571,-88.4629,0.86,12.8,1111122 
NERRS,ioos:station:NOAA.NERRS:gndblwq:1,2015-05-08T19:00:00Z,30.3571,-88.4629,0.82,14.0,1111122 
NERRS,ioos:station:NOAA.NERRS:gndblwq:1,2015-05-08T20:00:00Z,30.3571,-88.4629,0.79,14.0,1111122 
NERRS,ioos:station:NOAA.NERRS:gndblwq:1,2015-05-08T21:00:00Z,30.3571,-88.4629,0.74,13.9,1111122 
NERRS,ioos:station:NOAA.NERRS:gndblwq:1,2015-05-08T22:00:00Z,30.3571,-88.4629,0.69,13.8,1111122 
NERRS,ioos:station:NOAA.NERRS:gndblwq:1,2015-05-08T23:00:00Z,30.3571,-88.4629,0.6,14.2,1111122 
NERRS,ioos:station:NOAA.NERRS:gndblwq:1,2015-05-09T00:00:00Z,30.3571,-88.4629,0.49,14.4,1111122 
NERRS,ioos:station:NOAA.NERRS:gndblwq:1,2015-05-09T01:00:00Z,30.3571,-88.4629,0.41,14.5,1111122 
NERRS,ioos:station:NOAA.NERRS:gndblwq:1,2015-05-09T02:00:00Z,30.3571,-88.4629,0.36,14.7,1111122 
NERRS,ioos:station:NOAA.NERRS:gndblwq:1,2015-05-09T03:00:00Z,30.3571,-88.4629,0.34,14.4,1111122 
NERRS,ioos:station:NOAA.NERRS:gndblwq:1,2015-05-09T04:00:00Z,30.3571,-88.4629,0.34,14.8,1111122 
NERRS,ioos:station:NOAA.NERRS:gndblwq:1,2015-05-09T05:00:00Z,30.3571,-88.4629,0.34,14.5,1111122 
NERRS,ioos:station:NOAA.NERRS:gndblwq:1,2015-05-09T06:00:00Z,30.3571,-88.4629,0.33,14.6,1111122 
NERRS,ioos:station:NOAA.NERRS:gndblwq:1,2015-05-09T07:00:00Z,30.3571,-88.4629,0.35,14.5,1111122 
NERRS,ioos:station:NOAA.NERRS:gndblwq:1,2015-05-09T08:00:00Z,30.3571,-88.4629,0.4,14.5,1111122 
NERRS,ioos:station:NOAA.NERRS:gndblwq:1,2015-05-09T09:00:00Z,30.3571,-88.4629,0.46,14.4,1111122 
NERRS,ioos:station:NOAA.NERRS:gndblwq:1,2015-05-09T10:00:00Z,30.3571,-88.4629,0.51,14.4,1111122 
NERRS,ioos:station:NOAA.NERRS:gndblwq:1,2015-05-09T11:00:00Z,30.3571,-88.4629,0.54,14.0,1111122 
NERRS,ioos:station:NOAA.NERRS:gndblwq:1,2015-05-09T12:00:00Z,30.3571,-88.4629,0.57,13.9,1111122 
NERRS,ioos:station:NOAA.NERRS:gndblwq:1,2015-05-09T13:00:00Z,30.3571,-88.4629,0.63,13.7,1111122 
NERRS,ioos:station:NOAA.NERRS:gndblwq:1,2015-05-09T14:00:00Z,30.3571,-88.4629,0.69,13.6,1111122 
NERRS,ioos:station:NOAA.NERRS:gndblwq:1,2015-05-09T15:00:00Z,30.3571,-88.4629,0.74,13.3,1111122 
NERRS,ioos:station:NOAA.NERRS:gndblwq:1,2015-05-09T16:00:00Z,30.3571,-88.4629,0.77,13.2,1111122 
NERRS,ioos:station:NOAA.NERRS:gndblwq:1,2015-05-09T17:00:00Z,30.3571,-88.4629,0.77,13.2,1111122 
NERRS,ioos:station:NOAA.NERRS:gndblwq:1,2015-05-09T18:00:00Z,30.3571,-88.4629,0.75,13.3,1111122 
NERRS,ioos:station:NOAA.NERRS:gndblwq:1,2015-05-09T19:00:00Z,30.3571,-88.4629,0.72,14.4,1111122 
NERRS,ioos:station:NOAA.NERRS:gndblwq:1,2015-05-09T20:00:00Z,30.3571,-88.4629,0.69,14.7,1111122 
NERRS,ioos:station:NOAA.NERRS:gndblwq:1,2015-05-09T21:00:00Z,30.3571,-88.4629,0.65,14.6,1111122 
NERRS,ioos:station:NOAA.NERRS:gndblwq:1,2015-05-09T22:00:00Z,30.3571,-88.4629,0.6,14.7,1111122 
NERRS,ioos:station:NOAA.NERRS:gndblwq:1,2015-05-09T23:00:00Z,30.3571,-88.4629,0.53,14.9,1111122 
NERRS,ioos:station:NOAA.NERRS:gndblwq:1,2015-05-10T00:00:00Z,30.3571,-88.4629,0.47,14.7,1111122 
NERRS,ioos:station:NOAA.NERRS:gndblwq:1,2015-05-10T01:00:00Z,30.3571,-88.4629,0.39,15.1,1111122 
NERRS,ioos:station:NOAA.NERRS:gndblwq:1,2015-05-10T02:00:00Z,30.3571,-88.4629,0.33,15.1,1111122 
NERRS,ioos:station:NOAA.NERRS:gndblwq:1,2015-05-10T03:00:00Z,30.3571,-88.4629,0.3,14.0,1111122 
NERRS,ioos:station:NOAA.NERRS:gndblwq:1,2015-05-10T04:00:00Z,30.3571,-88.4629,0.32,14.3,1111122 
NERRS,ioos:station:NOAA.NERRS:gndblwq:1,2015-05-10T05:00:00Z,30.3571,-88.4629,0.32,14.5,1111122 
NERRS,ioos:station:NOAA.NERRS:gndblwq:1,2015-05-10T06:00:00Z,30.3571,-88.4629,0.32,14.6,1111122 
NERRS,ioos:station:NOAA.NERRS:gndblwq:1,2015-05-10T07:00:00Z,30.3571,-88.4629,0.35,14.4,1111122 
NERRS,ioos:station:NOAA.NERRS:gndblwq:1,2015-05-10T08:00:00Z,30.3571,-88.4629,0.38,14.4,1111122 
NERRS,ioos:station:NOAA.NERRS:gndblwq:1,2015-05-10T09:00:00Z,30.3571,-88.4629,0.4,14.4,1111122 
NERRS,ioos:station:NOAA.NERRS:gndblwq:1,2015-05-10T10:00:00Z,30.3571,-88.4629,0.46,14.4,1111122 
NERRS,ioos:station:NOAA.NERRS:gndblwq:1,2015-05-10T11:00:00Z,30.3571,-88.4629,0.53,14.1,1111122 
NERRS,ioos:station:NOAA.NERRS:gndblwq:1,2015-05-10T12:00:00Z,30.3571,-88.4629,0.59,14.0,1111122 
NERRS,ioos:station:NOAA.NERRS:gndblwq:1,2015-05-10T13:00:00Z,30.3571,-88.4629,0.65,13.9,1111122 
NERRS,ioos:station:NOAA.NERRS:gndblwq:1,2015-05-10T14:00:00Z,30.3571,-88.4629,0.69,13.8,1111122 
NERRS,ioos:station:NOAA.NERRS:gndblwq:1,2015-05-10T15:00:00Z,30.3571,-88.4629,0.73,13.5,1111122 
NERRS,ioos:station:NOAA.NERRS:gndblwq:1,2015-05-10T16:00:00Z,30.3571,-88.4629,0.76,13.7,1111122 
NERRS,ioos:station:NOAA.NERRS:gndblwq:1,2015-05-10T17:00:00Z,30.3571,-88.4629,0.79,13.4,1111122 
NERRS,ioos:station:NOAA.NERRS:gndblwq:1,2015-05-10T18:00:00Z,30.3571,-88.4629,0.81,13.6,1111122 
NERRS,ioos:station:NOAA.NERRS:gndblwq:1,2015-05-10T19:00:00Z,30.3571,-88.4629,0.8,13.4,1111122 
NERRS,ioos:station:NOAA.NERRS:gndblwq:1,2015-05-10T20:00:00Z,30.3571,-88.4629,0.75,14.8,1111122 
NERRS,ioos:station:NOAA.NERRS:gndblwq:1,2015-05-10T21:00:00Z,30.3571,-88.4629,0.72,14.9,1111122 
NERRS,ioos:station:NOAA.NERRS:gndblwq:1,2015-05-10T22:00:00Z,30.3571,-88.4629,0.69,14.7,1111122 
NERRS,ioos:station:NOAA.NERRS:gndblwq:1,2015-05-10T23:00:00Z,30.3571,-88.4629,0.66,14.7,1111122 
NERRS,ioos:station:NOAA.NERRS:gndblwq:1,2015-05-11T00:00:00Z,30.3571,-88.4629,0.61,14.8,1111122 
NERRS,ioos:station:NOAA.NERRS:gndblwq:1,2015-05-11T01:00:00Z,30.3571,-88.4629,0.54,14.6,1111122 
NERRS,ioos:station:NOAA.NERRS:gndblwq:1,2015-05-11T02:00:00Z,30.3571,-88.4629,0.48,14.5,1111122 
NERRS,ioos:station:NOAA.NERRS:gndblwq:1,2015-05-11T03:00:00Z,30.3571,-88.4629,0.44,14.8,1111122 
NERRS,ioos:station:NOAA.NERRS:gndblwq:1,2015-05-11T04:00:00Z,30.3571,-88.4629,0.39,14.5,1111122 
NERRS,ioos:station:NOAA.NERRS:gndblwq:1,2015-05-11T06:00:00Z,30.3571,-88.4629,0.4,14.2,1111122 
NERRS,ioos:station:NOAA.NERRS:gndblwq:1,2015-05-11T07:00:00Z,30.3571,-88.4629,0.41,14.1,1111122 